Location: Madrid
(40.4000°N, 3.6830°W)
Time: 08:46:57
(UTC+02:00)

ISS - Pass Details

Date: 22 July 2017
Orbit: 400 x 408 km, 51.6° (Epoch: 21 July)

Event Time Altitude Azimuth Distance (km) Brightness Sun altitude
Rises 22:34:21 0° 200° (SSW) 2,295 -0.2 -9.8°
Reaches altitude 10° 22:36:44 10° 183° (S) 1,441 -1.4 -10.1°
Maximum altitude 22:39:13 20° 133° (SE) 975 -2.5 -10.5°
Drops below altitude 10° 22:41:43 10° 82° (E) 1,448 -1.4 -10.9°
Sets 22:44:07 0° 66° (ENE) 2,310 -0.3 -11.2°
